When you browse on this site, cookies collect data to enhance your experience and personalize the content and advertising you see.
Visit our Privacy Policy to learn more. By continuing to use the site, you agree to this use of cookies and data.
  • In Romania
  • List of Countries
  • For 7 days
  • Water Temperature
  • Satellite Maps
  • Weather Map
  • Weather Widgets
  • user-avatar
    Login

    Hourly Weather Miskolc

    Today, 19 May, Sunday

    Time Temperature Precipitation Wind Pressure Humidity
    00:00 +14°C° 0 mm 1 mps 742 mmHg 89%
    01:00 +14°C° 0 mm 1 mps 742 mmHg 89%
    02:00 +14°C° 0 mm 1 mps 742 mmHg 90%
    03:00 +13°C° 0 mm 1 mps 742 mmHg 91%
    04:00 +13°C° 0 mm 1 mps 742 mmHg 92%
    05:00 +15°C° 0 mm 1 mps 742 mmHg 90%
    06:00 +16°C° 0 mm 1 mps 742 mmHg 88%
    07:00 +17°C° 0 mm 2 mps 742 mmHg 87%
    08:00 +18°C° 0.8 mm 2 mps 742 mmHg 84%
    09:00 +20°C° 0.8 mm 3 mps 742 mmHg 81%
    10:00 +21°C° 0.8 mm 3 mps 742 mmHg 78%
    11:00 +21°C° 0.6 mm 3 mps 741 mmHg 75%
    12:00 +22°C° 0.6 mm 3 mps 741 mmHg 72%
    13:00 +22°C° 0 mm 4 mps 742 mmHg 70%
    14:00 +24°C° 0.2 mm 3 mps 741 mmHg 68%
    15:00 +24°C° 0.2 mm 3 mps 741 mmHg 67%
    16:00 +24°C° 0.2 mm 3 mps 741 mmHg 66%
    17:00 +23°C° 0.3 mm 2 mps 741 mmHg 71%
    18:00 +21°C° 0.3 mm 1 mps 740 mmHg 76%
    19:00 +17°C° 0.3 mm 0 mps 740 mmHg 81%
    20:00 +19°C° 0.9 mm 1 mps 740 mmHg 84%
    21:00 +17°C° 0.9 mm 2 mps 740 mmHg 88%
    22:00 +17°C° 0.9 mm 3 mps 740 mmHg 92%
    23:00 +17°C° 1 mm 3 mps 740 mmHg 92%

    Tomorrow, 20 May, Monday

    Time Temperature Precipitation Wind Pressure Humidity
    00:00 +17°C° 1 mm 4 mps 739 mmHg 92%
    01:00 +16°C° 1 mm 5 mps 739 mmHg 93%
    02:00 +15°C° 0.7 mm 4 mps 739 mmHg 93%
    03:00 +16°C° 0.7 mm 3 mps 739 mmHg 93%
    04:00 +16°C° 0.7 mm 2 mps 739 mmHg 94%
    05:00 +17°C° 0.3 mm 2 mps 739 mmHg 93%
    06:00 +17°C° 0.3 mm 2 mps 739 mmHg 92%
    07:00 +18°C° 0.3 mm 3 mps 740 mmHg 91%
    08:00 +19°C° 0.1 mm 3 mps 740 mmHg 87%
    09:00 +20°C° 0.1 mm 3 mps 740 mmHg 83%
    10:00 +21°C° 0.1 mm 4 mps 741 mmHg 78%
    11:00 +21°C° 0.1 mm 4 mps 741 mmHg 74%
    12:00 +22°C° 0.1 mm 4 mps 741 mmHg 70%
    13:00 +22°C° 0.1 mm 4 mps 741 mmHg 66%
    14:00 +22°C° 0.2 mm 4 mps 741 mmHg 68%
    15:00 +21°C° 0.2 mm 4 mps 741 mmHg 71%
    16:00 +21°C° 0.2 mm 3 mps 741 mmHg 73%
    17:00 +20°C° 0.1 mm 3 mps 741 mmHg 78%
    18:00 +18°C° 0.1 mm 2 mps 741 mmHg 83%
    19:00 +18°C° 0.1 mm 1 mps 741 mmHg 87%
    20:00 +16°C° 0 mm 1 mps 741 mmHg 88%
    21:00 +15°C° 0 mm 1 mps 741 mmHg 89%
    22:00 +15°C° 0 mm 1 mps 741 mmHg 90%
    23:00 +14°C° 0 mm 1 mps 741 mmHg 91%

    Day after tomorrow, 21 May, Tuesday

    Time Temperature Precipitation Wind Pressure Humidity
    00:00 +14°C° 0 mm 1 mps 742 mmHg 91%
    01:00 +13°C° 0 mm 2 mps 742 mmHg 91%
    02:00 +13°C° 0 mm 2 mps 742 mmHg 90%
    03:00 +13°C° 0 mm 2 mps 742 mmHg 89%
    04:00 +13°C° 0 mm 2 mps 742 mmHg 87%
    05:00 +14°C° 0 mm 2 mps 742 mmHg 85%
    06:00 +13°C° 0 mm 3 mps 742 mmHg 83%
    07:00 +14°C° 0 mm 3 mps 742 mmHg 80%
    08:00 +16°C° 0 mm 3 mps 742 mmHg 77%
    09:00 +17°C° 0 mm 4 mps 742 mmHg 74%
    10:00 +18°C° 0 mm 4 mps 742 mmHg 70%
    11:00 +17°C° 0 mm 5 mps 742 mmHg 70%
    12:00 +19°C° 0 mm 5 mps 742 mmHg 70%
    13:00 +19°C° 0 mm 5 mps 742 mmHg 70%
    14:00 +19°C° 0.6 mm 5 mps 742 mmHg 75%
    15:00 +17°C° 0.6 mm 5 mps 742 mmHg 79%
    16:00 +17°C° 0.6 mm 5 mps 742 mmHg 83%
    17:00 +17°C° 0.3 mm 4 mps 742 mmHg 86%
    18:00 +15°C° 0.3 mm 4 mps 742 mmHg 89%
    19:00 +16°C° 0.3 mm 3 mps 742 mmHg 92%
    20:00 +14°C° 0 mm 3 mps 743 mmHg 92%
    21:00 +13°C° 0 mm 3 mps 743 mmHg 93%
    22:00 +12°C° 0 mm 3 mps 743 mmHg 93%
    23:00 +12°C° 0 mm 3 mps 743 mmHg 93%

    22 May, Wednesday

    Time Temperature Precipitation Wind Pressure Humidity
    00:00 +12°C° 0 mm 3 mps 743 mmHg 94%
    01:00 +11°C° 0 mm 3 mps 743 mmHg 94%
    02:00 +11°C° 0 mm 3 mps 743 mmHg 94%
    03:00 +12°C° 0 mm 3 mps 743 mmHg 94%
    04:00 +12°C° 0 mm 3 mps 743 mmHg 94%
    05:00 +13°C° 0.1 mm 3 mps 744 mmHg 94%
    06:00 +13°C° 0.1 mm 3 mps 744 mmHg 93%
    07:00 +14°C° 0.1 mm 4 mps 744 mmHg 92%
    08:00 +14°C° 0.3 mm 4 mps 744 mmHg 91%
    09:00 +15°C° 0.3 mm 5 mps 744 mmHg 89%
    10:00 +15°C° 0.3 mm 5 mps 744 mmHg 88%
    11:00 +16°C° 0.1 mm 6 mps 744 mmHg 85%
    12:00 +17°C° 0.1 mm 6 mps 744 mmHg 83%
    13:00 +17°C° 0.1 mm 6 mps 744 mmHg 80%
    14:00 +17°C° 0.2 mm 6 mps 744 mmHg 80%
    15:00 +17°C° 0.2 mm 6 mps 744 mmHg 80%
    16:00 +17°C° 0.2 mm 6 mps 744 mmHg 80%
    17:00 +16°C° 0 mm 6 mps 744 mmHg 82%
    18:00 +16°C° 0 mm 5 mps 744 mmHg 84%
    19:00 +15°C° 0 mm 5 mps 744 mmHg 86%
    20:00 +15°C° 0 mm 5 mps 744 mmHg 87%
    21:00 +14°C° 0 mm 4 mps 744 mmHg 89%
    22:00 +14°C° 0 mm 4 mps 745 mmHg 90%
    23:00 +14°C° 0.1 mm 4 mps 744 mmHg 91%

    23 May, Thursday

    Time Temperature Precipitation Wind Pressure Humidity
    00:00 +14°C° 0.1 mm 4 mps 744 mmHg 92%
    01:00 +13°C° 0.1 mm 4 mps 744 mmHg 93%
    02:00 +13°C° 0 mm 4 mps 744 mmHg 92%
    03:00 +12°C° 0 mm 4 mps 744 mmHg 92%
    04:00 +12°C° 0 mm 4 mps 744 mmHg 92%
    05:00 +13°C° 0 mm 4 mps 744 mmHg 88%
    06:00 +14°C° 0 mm 4 mps 744 mmHg 84%
    07:00 +15°C° 0 mm 5 mps 745 mmHg 80%
    08:00 +17°C° 0.3 mm 4 mps 745 mmHg 82%
    09:00 +17°C° 0.3 mm 3 mps 745 mmHg 84%
    10:00 +17°C° 0.3 mm 2 mps 746 mmHg 86%
    11:00 +17°C° 0.2 mm 2 mps 746 mmHg 84%
    12:00 +18°C° 0.2 mm 2 mps 746 mmHg 81%
    13:00 +19°C° 0.2 mm 2 mps 746 mmHg 79%
    14:00 +19°C° 1.8 mm 2 mps 746 mmHg 80%
    15:00 +20°C° 1.8 mm 1 mps 746 mmHg 81%
    16:00 +20°C° 1.8 mm 1 mps 746 mmHg 83%
    17:00 +18°C° 1 mm 2 mps 746 mmHg 86%
    18:00 +17°C° 1 mm 2 mps 746 mmHg 89%
    19:00 +14°C° 1 mm 3 mps 746 mmHg 92%
    20:00 +15°C° 0.1 mm 2 mps 746 mmHg 92%
    21:00 +14°C° 0.1 mm 1 mps 747 mmHg 92%
    22:00 +12°C° 0.1 mm 0 mps 747 mmHg 93%
    23:00 +13°C° 0 mm 1 mps 747 mmHg 93%

    24 May, Friday

    Time Temperature Precipitation Wind Pressure Humidity
    00:00 +12°C° 0 mm 1 mps 747 mmHg 93%
    01:00 +12°C° 0 mm 1 mps 747 mmHg 93%
    02:00 +11°C° 0 mm 1 mps 747 mmHg 93%
    03:00 +11°C° 0 mm 1 mps 747 mmHg 92%
    04:00 +11°C° 0 mm 1 mps 747 mmHg 92%
    05:00 +12°C° 0 mm 1 mps 747 mmHg 89%
    06:00 +13°C° 0 mm 1 mps 747 mmHg 86%
    07:00 +14°C° 0 mm 1 mps 747 mmHg 83%
    08:00 +15°C° 0 mm 1 mps 747 mmHg 78%
    09:00 +16°C° 0 mm 1 mps 747 mmHg 73%
    10:00 +18°C° 0 mm 1 mps 747 mmHg 68%
    11:00 +18°C° 0 mm 2 mps 746 mmHg 66%
    12:00 +19°C° 0 mm 2 mps 746 mmHg 64%
    13:00 +20°C° 0 mm 2 mps 746 mmHg 62%
    14:00 +20°C° 0.1 mm 2 mps 745 mmHg 64%
    15:00 +20°C° 0.1 mm 2 mps 745 mmHg 65%
    16:00 +20°C° 0.1 mm 2 mps 745 mmHg 67%
    17:00 +19°C° 0.1 mm 1 mps 744 mmHg 73%
    18:00 +18°C° 0.1 mm 1 mps 744 mmHg 78%
    19:00 +15°C° 0.1 mm 0 mps 744 mmHg 84%
    20:00 +14°C° 0 mm 0 mps 744 mmHg 85%
    21:00 +14°C° 0 mm 1 mps 745 mmHg 86%
    22:00 +13°C° 0 mm 1 mps 745 mmHg 86%
    23:00 +13°C° 0 mm 1 mps 745 mmHg 86%
    Show more